www.pogodaiklimat.ru

Погода и климат >> Архив погоды >> Сенегал >> Kedougou


ПОГОДА в Kedougou

  • Прогноз погоды в Kedougou
  • Монитор погоды в Kedougou
  • Климат города

АРХИВ ПОГОДЫ в Kedougou

Время (UTC), дата Ветер
(напр.,м/с)
 
Видим.   Явления Облачность Т
(С)
Тd
(С)
f
(%)
Тe
(С)
Тes
(С)
Комфортность P
(гПа)
Po
(гПа)
Тmin
(С)
Tmax
(С)
R
(мм)
R24
(мм)
S
(см)
18 10.12 В 2 10 км 3/0
[Ci sp]
+33.9 +10.2 23 +33 +33 жарко 1011.0 992.2 +36.5
06 11.12 штиль 0 10 км ясно +20.0 +11.0 56 +21 +21 комфорт 1012.2 993.4 +11.9
09 11.12 ЮВ 2 10 км ясно +21.6 +11.7 53 +24 +27 комфорт 1013.9 994.8
12 11.12 ЮВ 3 10 км ясно +32.9 +9.8 24 +32 +43 жарко 1012.9 994.1
15 11.12 Ю 3 10 км ясно +35.5 +15.0 29 +37 +45 душно 1009.9 991.2
18 11.12 СВ 2 10 км ясно +34.0 +15.0 32 +36 +36 душно 1009.4 990.6 +36.5
03 12.12 штиль 0 10 км ясно +22.5 +12.0 51 +25 +25 комфорт 1010.7 992.0
06 12.12 штиль 0 10 км 5/0
[Ac trans]
+21.0 +11.2 53 +23 +23 комфорт 1011.0 992.2 +19.5
09 12.12 штиль 0 10 км 8/0
[Ac trans]
+23.5 +11.2 46 +25 +27 комфорт 1012.3 993.3
15 12.12 В 3 10 км 5/0
[Ac trans Ci sp]
+37.0 +13.1 24 +37 +43 очень
жарко
1009.1 990.5
18 12.12 ЮВ 3 10 км 8/0
[Ac As Ci sp]
+33.8 +12.9 28 +34 +34 очень
жарко
1009.2 990.5 +36.8
06 13.12 штиль 0 10 км 8/0
[Ac trans]
+22.5 +16.0 67 +27 +27 душно 1011.8 993.0 +21.5
09 13.12 Ю 2 10 км 8/0
[Ac trans Ci sp]
+27.0 +14.7 47 +30 +31 душно 1013.4 994.7
12 13.12 В 2 10 км 3/0
[Ac trans Ci sp]
+33.0 +14.6 33 +35 +46 душно 1012.9 994.2
15 13.12 ЮВ 3 10 км 8/0
[Ac trans Ci sp]
+36.0 +14.7 28 +37 +42 душно 1009.9 991.4
18 13.12 СВ 2 10 км 6/0
[Ac trans Cc]
+34.0 +13.9 30 +35 +35 очень
жарко
1011.1 992.4 +37.2
06 14.12 штиль 0 10 км 9/0
[Ac trans Ci sp]
+22.8 +10.7 46 +25 +25 комфорт 1013.0 994.2 +22.4
09 14.12 СВ 3 10 км 8/0
[Ac trans Ci sp]
+26.0 +8.7 33 +26 +28 жарко 1015.0 996.1
12 14.12 ЮВ 5 8000 м 8/0
[Ac trans Ci sp]
+33.8 +2.6 14 +31 +36 жарко 1013.6 995.0
15 14.12 ЮВ 4 8000 м 9/0
[Ac trans Ci sp]
+35.0 +4.4 15 +32 +35 жарко 1011.7 993.0
18 14.12 0 8000 м 8/0
[Ac As]
+32.6 +7.3 21 1012.7 993.9 +36.0
03 15.12 штиль 0 10 км 4/0
[Ci sp]
+24.0 +8.3 37 +25 +25 комфорт 1014.5 995.8
06 15.12 штиль 0 10 км 5/0
[Ac trans Ci sp]
+21.5 +10.7 50 +23 +23 комфорт 1016.0 996.1 +21.0
09 15.12 В 2 10 км 5/0
[Ac trans Ci sp]
+26.6 +5.2 25 +26 +28 жарко 1016.8 997.9
12 15.12 ЮВ 4 10 км 5/0
[Ac trans Ci sp]
+32.8 +5.6 18 +31 +38 жарко 1016.0 997.3
15 15.12 СВ 6 10 км 4/0
[Ac trans Ci sp]
+36.0 +4.8 14 +33 +36 жарко 1012.7 994.0
18 15.12 СВ 3 10 км 5/0
[Ac trans Ci sp]
+32.8 +7.0 20 +31 +31 жарко 1013.3 994.5 +37.0
03 16.12 В 2 10 км ясно +22.0 +1.9 27 +22 +22 комфорт 1014.7 996.0
06 16.12 В 2 10 км 4/0
[Ci sp]
+19.0 +2.8 34 +20 +20 1014.4 999.6 +18.8
09 16.12 СВ 4 10 км ясно +23.5 +3.0 26 +23 +25 комфорт 1015.6 996.9
12 16.12 В 6 10 км ясно +31.2 -1.1 12 +28 +33 жарко 1014.8 995.9
15 16.12 В 4 10 км 3/0
[Ci fib]
+34.0 +0.9 12 +31 +37 жарко 1012.1 993.3
18 16.12 В 3 10 км ясно +33.2 +5.0 17 +31 +31 жарко 1011.5 992.7 +35.8
06 17.12 ЮВ 2 10 км 4/0
[Ci fib]
+16.6 +8.0 57 +17 +17 1012.9 993.9 +16.1
09 17.12 В 1 4000 м дым ясно +21.3 +5.4 35 +22 +26 комфорт 1014.9 995.8
12 17.12 ЮВ 3 4000 м дым ясно +31.8 +1.8 15 +29 +40 жарко 1013.4 994.6
15 17.12 В 3 10 км ясно +35.5 +0.9 11 +32 +40 жарко 1010.2 991.4

 

Местоположение метеостанции Kedougou (Сенегал): широта 12.57 долгота -12.21 высота над уровнем моря 167 м.

В архиве по умолчанию представлена погода в Kedougou за последнюю неделю. Архивные данные за месяц целиком и за предыдущие месяцы, начиная с января 2011 года, Вы можете получить, выбрав интересующий диапазон дат из раскрывающегося списка и нажав кнопку "Ввод!".


*Определитесь, кто Вы:
робот инопланетянин человек

Внимание! Время в таблицах - всемирное. Для получения местного времени необходимо прибавить поправку, которая в Kedougou равна 0 ч.

Смотрите также архив погоды в соседних городах и на ближайших метеорологических станциях:

Погода в Kenieba (Мали) (111 км)
Погода в Koundara (Гвинея) (141 км)
Погода в Fatoto (Гамбия) (195 км)
Погода в Tambacounda (Сенегал) (208 км)
Погода в Kayes (Мали) (223 км)
Погода в Basse (Гамбия) (230 км)
Погода в Bafata (Гвинея-Биссау) (271 км)
Погода в Kindia (Гвинея) (289 км)
Погода в Georgetown (Гамбия) (297 км)
Погода в Kolda (Сенегал) (300 км)

Пояснения к столбцам:

Ветер - указаны скорость ветра в м/с - средняя за 10 мин, порывы в срок и между сроками (в фигурных скобках) и направление, откуда дует ветер: С - северный, СВ - северо-восточный, В - восточный, ЮВ - юго-восточный, Ю - южный, ЮЗ - юго-западный, З - западный, СЗ - северо-западный.
Видимость - горизонтальная дальность видимости в метрах или километрах. При видимости от 1 до 10 км при отсутствии осадков обычно наблюдается дымка, при ухудшении видимости до 1 км и менее - туман. В сухую погоду видимость может ухудшаться дымом, пылью или мглою.
Явления - указаны атмосферные явления, наблюдавшиеся в срок или в последний час перед сроком; фигурными скобками обозначены явления, наблюдавшиеся между сроками (за 1-3 часа до срока); квадратными скобками обозначены град или гололедные отложения с указанием их диаметра в мм.
Облачность - указаны через наклонную черту общая и нижняя облачность в баллах и высота нижней границы облаков в метрах; квадратными скобками обозначены формы облаков: Ci - перистые, Cs - перисто-слоистые, Cc - перисто-кучевые, Ac - высококучевые, As - высокослоистые, Sc - слоисто-кучевые, Ns - слоисто-дождевые, Cu - кучевые, Cb - кучево-дождевые. Подробнее классификацию облаков см. в Атласе облаков (PDF).
T - Температура воздуха - температура, измеренная на высоте 2 м над землей.
Td - Температура точки росы - температура, при понижении до которой содержащийся в воздухе водяной пар достигнет насыщения.
f - Относительная влажность воздуха - влажноcть воздуха, измеренная на высоте 2 м над землей.
Te - Эффективная температура - температура, которую ощущает одетый по сезону человек в тени. Характеристика душности погоды. При расчете учитывается влияние влажности воздуха и скорости ветра на теплоощущения человека.
Tes - Эффективная температура на солнце - температура, которую ощущает человек, с поправкой на солнечный нагрев. Характеристика знойности погоды. Зависит от высоты солнца над горизонтом, облачности и скорости ветра. Ночью, в пасмурную погоду, а также при ветре 12 м/с и более поправка равна нулю.
P - Атмосферное давление - приведенное к уровню моря атмосферное давление.
Po - Атмосферное давление - измеренное на уровне метеостанции атмосферное давление.
Tmin - Минимальная температура - минимум температуры воздуха на высоте 2 м над землей.
Tmax - Максимальная температура - максимум температуры воздуха на высоте 2 м над землей.
R - Количество осадков - Количество выпавших осадков за период времени, мм. При наведении курсора мыши на число - период времени, за который выпало указанное количество осадков.
R24 - Количество осадков - Количество выпавших осадков за 24 часа, мм.
S - Снежный покров - Высота снежного покрова, см. При наведении курсора мыши на число - состояние снежного покрова и степень покрытия местности в баллах.